SCP
0 0 0 0 0 0 0 0 0 0 0 0 0 0 0 0 0 0 0 0 0 0 1 1 1 1 1 1 1 0 0 1 1 1 1 1 1 1 0 0 1 1 1
0 0 0 0 0 0 0 0 0 0 0 0 0 0 0 0 0 0 0 0 0 0 0 0 1 1 1 1 1 1 1 0 0 0 1 1 1 1 1 1 1 1 1
0 0 0 0 0 0 0 0 0 0 0 0 0 -0 0 0 0 0 0 0 0 0 0 0 1 1 1 1 1 1 1 1 0 0 0 1 1 1 1 1 1 1 0
0 0 0 0 0 0 0 0 0 0 0 0 0 0 0 0 0 0 0 0 0 0 0 0 0 0 0 1 1 1 1 1 1 1 1 1 1 1 1 1 0 1 1
0 0 0 0 0 0 0 0 0 0 0 0 0 0 0 0 0 -0 0 0 0 0 0 0 0 0 0 0 0 1 1 1 1 1 1 1 1 1 0 1 0 0 0
0 0 0 0 0 0 0 0 0 0 0 0 0 0 0 0 0 -0 0 0 0 0 0 0 0 0 0 0 0 0 0 0 1 1 1 1 1 1 1 1 1 0 0
0 0 0 0 0 0 0 0 0 0 0 0 0 0 0 0 0 0 0 0 0 0 0 0 0 0 0 0 0 0 0 0 0 1 1 1 1 1 1 1 1 0 0
0 0 0 0 0 0 0 0 0 0 0 0 0 0 0 0 0 0 0 0 0 0 0 0 0 0 0 0 0 0 0 0 0 1 1 1 1 1 1 1 1 0 0
0 0 0 0 0 0 0 0 0 0 0 0 0 0 0 0 0 0 0 0 0 0 0 0 0 0 0 0 0 0 0 0 0 0 1 1 1 1 1 1 1 1 0
0 0 0 0 0 0 0 0 0 0 0 0 0 0 0 0 0 0 0 0 0 0 0 0 0 0 0 0 0 0 0 0 0 0 0 1 1 1 1 1 1 0 0
0 0 0 0 0 0 0 0 0 0 0 0 0 0 0 0 0 0 0 0 0 0 0 0 0 0 0 0 0 0 0 0 0 0 0 0 0 1 1 1 0 0 -0
0 0 0 0 0 0 0 0 0 0 0 0 0 0 0 0 0 0 0 0 0 0 0 0 0 0 0 0 0 0 0 0 0 0 0 0 0 0 0 1 0 0 0
0 0 0 0 0 0 0 0 0 0 0 0 0 0 0 0 0 0 0 0 0 0 0 0 0 0 0 0 0 0 0 0 0 0 0 0 0 0 0 0 0 0 0
0 0 0 0 0 0 0 0 0 0 0 0 0 0 0 0 0 0 0 0 0 0 0 0 0 0 0 0 0 0 -0 0 0 0 0 0 0 0 0 0 0 0 0
0 0 0 0 0 0 0 0 0 0 0 0 0 0 0 0 0 0 0 0 0 0 0 0 0 0 0 0 0 0 0 0 0 0 0 0 0 0 0 0 0 0 0
0 0 0 0 0 0 0 0 0 0 0 0 0 0 0 0 0 0 0 0 0 0 0 0 0 0 0 0 0 0 0 0 0 0 0 0 0 0 0 0 0 0 0
0 0 0 0 0 0 0 0 0 0 0 0 0 0 0 0 0 0 0 0 0 0 0 0 0 0 0 0 0 0 0 0 0 0 0 0 0 0 0 0 0 0 0
0 0 0 0 0 0 0 0 0 0 0 0 0 0 0 0 0 0 0 0 0 0 0 0 0 0 0 0 0 0 0 0 0 0 0 0 0 0 0 0 0 0 0
0 0 0 0 0 0 0 0 0 0 0 0 0 0 0 0 0 0 0 0 0 0 0 0 0 0 0 0 0 0 0 0 0 0 0 0 0 0 0 0 0 0 0
0 0 0 0 0 0 0 0 0 0 0 0 0 0 0 0 0 0 0 0 0 0 0 0 0 0 0 0 0 0 0 0 0 0 0 0 0 0 0 0 0 0 0
0 0 0 0 0 0 0 0 0 0 0 0 0 0 0 0 0 0 0 0 0 0 0 0 0 0 0 0 0 0 0 0 0 0 0 0 0 0 0 0 0 0 0
0 0 0 0 0 0 0 0 0 0 0 0 0 0 0 0 0 0 0 0 0 0 0 0 0 0 0 0 0 0 0 0 0 0 0 0 0 0 0 0 0 0 0
0 0 0 0 0 0 0 0 0 0 0 0 0 0 0 0 0 0 0 0 0 0 0 0 0 0 0 0 0 0 0 0 0 0 0 0 0 0 0 0 0 0 0
0 0 0 0 0 0 0 0 0 0 0 0 0 0 0 0 0 0 0 0 0 0 0 0 0 0 0 0 0 0 0 0 0 0 0 0 0 0 0 0 0 0 0
0 0 0 0 0 0 0 0 0 0 0 0 0 0 0 0 0 0 0 0 0 0 0 0 0 0 0 0 0 0 0 0 0 0 0 0 0 0 0 0 0 0 0
0 0 0 0 0 0 0 0 0 0 0 0 0 0 0 0 0 0 0 0 0 0 0 0 0 0 0 0 0 0 0 0 0 0 0 0 0 0 0 0 0 0 0
Wind_Speed_500mb
27 26 21 21 29 28 30 30 30 31 35 35 36 31 28 28 32 34 36 39 38 36 36 33 33 35 34 37 50 54 53 47 42 43 45 49 49 53 54 55 54 51 51
26 29 28 26 26 29 32 34 33 32 27 23 25 30 34 38 41 41 42 45 43 43 37 39 33 31 31 36 42 40 46 50 48 44 43 48 52 51 52 55 58 56 53
34 32 35 33 32 32 32 35 33 31 29 29 24 39 47 46 49 49 41 35 38 39 34 34 36 41 42 48 51 51 52 53 56 50 49 49 53 53 55 52 56 57 58
39 39 42 39 35 36 35 26 20 26 40 56 55 67 55 58 57 26 31 44 38 41 45 50 56 56 50 44 43 42 46 53 54 57 60 58 55 54 50 54 54 55 57
37 41 46 46 42 38 44 47 42 54 47 48 61 68 63 65 23 37 46 50 49 48 53 56 52 51 50 52 52 52 49 46 51 51 56 55 55 58 59 51 51 54 55
39 45 45 47 42 65 60 38 41 55 38 45 49 55 46 44 51 42 50 49 42 42 42 43 46 51 56 60 61 57 51 50 53 58 52 51 55 59 49 46 35 40 50
19 30 48 48 43 41 39 26 36 38 47 39 34 39 41 42 51 47 41 46 45 45 48 53 57 58 58 53 52 51 51 45 47 52 48 48 51 48 43 44 46 49 50
36 32 42 35 36 28 24 24 23 27 37 37 39 29 29 35 39 40 39 56 54 60 58 60 66 67 62 62 64 66 63 51 41 37 36 47 50 48 54 56 59 57 49
27 25 24 21 21 27 29 30 31 30 25 24 33 31 15 21 40 54 57 63 61 63 69 73 67 70 68 64 59 59 58 52 46 48 42 43 40 47 46 48 48 49 57
21 20 22 19 25 28 30 33 28 27 31 27 34 37 41 47 46 58 65 61 74 70 70 75 79 72 74 70 59 61 60 52 50 47 43 44 42 42 45 49 52 52 50
22 24 27 21 32 26 21 26 27 28 32 35 37 43 49 52 54 59 78 78 74 81 84 80 77 74 69 67 59 56 60 51 47 49 47 51 51 44 44 48 47 37 38
34 34 36 30 28 26 26 29 32 34 37 43 49 53 54 54 58 57 66 79 95 92 80 72 66 53 47 46 43 46 56 54 49 35 31 31 35 48 49 46 45 41 40
44 42 34 27 27 28 30 35 39 45 52 57 58 61 61 60 58 61 63 72 72 78 81 72 58 50 59 56 53 58 60 58 50 44 40 39 31 31 40 46 45 44 42
33 31 29 30 32 34 39 44 50 53 57 60 63 64 66 65 61 59 58 61 73 60 51 51 59 68 59 57 55 56 69 71 62 53 46 47 42 34 34 39 41 42 44
36 36 37 38 39 43 47 51 53 56 58 60 60 60 61 58 55 52 52 53 59 66 65 55 57 54 70 73 73 71 71 66 66 62 51 46 41 34 35 39 39 40 41
29 32 36 40 43 45 49 52 54 54 56 58 58 57 55 53 51 51 53 55 56 66 82 68 74 77 84 88 88 85 83 75 66 65 61 50 36 37 31 33 37 39 38
29 33 37 40 43 46 48 52 55 59 61 61 58 54 54 52 53 54 55 59 65 71 90 99 87 85 87 92 80 69 71 73 70 62 61 65 52 42 38 33 35 38 36
32 37 40 44 47 51 54 57 58 56 56 55 52 51 51 52 59 64 68 72 78 83 89 101 89 86 82 70 67 66 65 62 70 66 61 60 63 52 42 40 40 40 41
36 40 45 50 53 56 58 57 57 56 53 52 52 55 61 65 71 72 75 76 76 74 73 78 84 80 73 63 64 65 64 61 70 65 60 59 57 58 49 43 44 41 45
41 45 50 55 59 62 62 59 51 47 49 55 61 67 73 72 67 71 69 67 62 65 68 75 81 81 79 75 66 69 68 63 66 60 57 54 47 52 58 50 43 44 46
50 54 59 60 62 61 58 47 41 42 57 64 69 62 64 65 68 63 57 60 64 69 74 77 82 79 70 67 60 61 64 69 64 57 50 34 40 39 49 52 46 46 43
52 54 56 57 57 51 45 41 44 51 57 62 65 67 69 60 58 55 61 61 65 69 73 73 76 72 76 71 65 62 65 65 68 49 28 29 14 30 29 36 44 45 41
49 53 53 49 44 39 35 37 43 50 59 60 63 64 60 60 61 65 64 60 59 59 65 75 82 84 79 75 71 63 57 63 61 55 52 48 15 11 32 36 40 41 43
49 51 41 34 36 35 33 30 37 46 53 56 53 53 58 61 52 48 50 56 61 67 72 74 80 81 72 66 64 62 58 57 54 53 48 51 19 20 27 31 30 34 36
41 38 34 29 30 31 31 34 40 46 50 50 50 58 53 52 53 54 61 70 76 76 68 72 64 58 56 54 53 49 53 51 55 53 38 44 37 17 26 21 22 26 32
37 34 33 29 30 31 28 30 30 40 47 54 56 46 51 54 57 62 70 76 83 84 74 70 56 55 51 48 53 58 61 61 48 28 29 31 33 23 15 20 23 30 37
Wind_Direction_500mb
248 248 241 226 223 227 238 249 259 269 274 275 274 272 277 275 281 288 292 284 281 280 279 279 285 288 287 289 296 290 290 288 285 288 290 288 290 288 280 278 275 274 274
241 237 219 221 228 239 253 264 273 276 278 290 285 277 282 274 274 271 277 288 284 278 286 291 289 289 292 293 296 292 279 274 282 281 292 290 286 283 284 279 274 272 270
228 231 220 225 236 244 256 266 273 274 275 279 291 284 280 270 283 284 291 289 274 278 291 291 294 298 299 291 291 286 279 276 277 273 276 282 282 282 277 277 277 272 269
220 229 225 230 234 234 237 243 267 292 286 266 262 271 285 252 257 253 292 284 285 283 288 296 301 303 300 295 296 296 290 287 280 276 273 278 279 278 273 271 270 272 269
225 232 232 235 235 245 258 269 267 279 274 253 279 274 262 259 203 243 277 281 284 289 292 292 293 292 290 291 296 295 297 294 292 289 281 278 278 276 279 277 276 273 268
245 244 243 250 248 272 271 268 275 267 264 263 277 261 271 241 262 256 273 278 283 291 296 295 292 289 287 287 288 290 292 292 289 283 287 288 284 277 264 268 280 283 274
242 251 262 267 258 276 250 252 262 262 262 248 268 257 254 257 263 265 268 269 282 289 295 299 297 297 295 289 286 290 291 291 290 278 274 276 277 278 273 264 270 280 275
223 214 246 254 257 256 243 243 233 232 245 251 252 251 268 273 270 274 267 285 291 294 296 297 298 297 295 291 290 289 287 286 286 292 294 283 271 267 272 273 276 278 275
227 229 239 243 241 253 254 241 234 240 243 235 244 248 276 274 287 285 287 291 295 295 297 296 294 295 294 294 290 285 285 291 289 281 291 282 274 271 271 273 276 276 272
228 238 238 221 231 240 238 233 220 234 240 242 246 253 258 269 286 297 296 290 292 289 289 290 294 295 293 294 283 285 289 292 285 278 274 289 275 276 279 281 280 284 270
241 249 239 241 237 231 220 226 237 237 240 248 255 265 269 269 272 279 285 291 284 287 294 296 297 297 295 288 284 284 289 283 286 282 277 278 278 276 282 276 275 281 272
237 233 233 226 222 228 235 241 244 250 257 267 275 278 279 282 284 281 282 287 291 297 300 301 304 305 304 300 287 291 288 288 281 280 269 272 278 280 280 268 267 272 273
231 223 221 229 237 240 243 247 254 262 268 273 278 281 281 281 282 282 283 285 292 297 299 301 303 297 296 293 286 287 286 289 278 266 267 266 279 284 272 262 263 265 266
205 211 219 228 236 240 248 258 267 273 278 280 278 278 279 281 284 286 287 292 294 294 300 295 298 303 303 301 298 293 286 284 280 272 269 267 269 272 282 268 267 268 266
213 218 227 236 248 258 266 271 273 274 274 277 280 282 283 284 285 286 285 286 289 296 295 297 299 301 300 301 300 300 297 295 286 273 264 266 263 263 275 273 268 263 269
228 240 252 259 266 271 273 276 279 282 284 285 286 286 285 287 288 288 289 288 288 291 292 293 297 300 301 300 299 300 297 294 287 277 263 260 245 237 248 263 272 266 279
256 264 270 275 279 283 288 290 292 292 289 288 287 285 286 290 289 289 289 288 288 286 287 292 294 298 299 301 300 295 293 292 289 279 263 254 247 249 243 247 260 264 269
267 274 278 281 284 285 288 293 296 294 290 289 289 288 286 284 285 287 287 288 288 288 289 292 296 297 299 301 297 296 296 292 288 279 270 257 246 244 239 241 251 259 260
285 285 286 287 289 291 292 293 296 293 288 285 287 288 288 288 287 289 291 293 293 292 290 291 292 297 301 301 298 298 295 291 294 289 278 258 246 242 236 233 244 263 258
288 287 286 285 287 288 290 293 291 285 284 284 288 288 287 285 290 298 298 297 297 297 298 295 295 298 299 298 296 296 292 291 295 294 277 258 249 242 239 241 246 261 262
290 289 289 289 290 291 291 288 281 276 286 289 290 291 291 291 298 296 296 298 299 297 296 294 293 293 289 289 286 290 283 295 297 296 286 261 254 240 234 237 247 258 253
295 294 295 296 296 294 291 282 275 279 286 290 293 293 298 300 299 296 294 294 291 290 287 286 285 280 284 284 278 282 282 287 295 298 277 253 270 227 226 226 239 245 233
300 298 296 295 292 293 291 282 282 283 286 294 296 302 306 305 305 303 301 297 291 285 279 281 279 278 282 281 276 277 273 277 285 287 295 274 251 231 238 236 236 231 223
310 307 302 295 293 294 297 296 297 295 295 300 303 304 304 305 309 311 307 300 293 292 289 287 284 280 280 280 274 271 274 279 280 278 283 276 241 244 231 229 235 223 214
319 321 320 313 304 307 311 307 305 304 304 303 306 306 306 310 317 312 310 302 299 297 299 296 289 291 280 271 270 262 260 262 268 274 273 259 248 251 220 221 211 207 187
315 317 317 317 316 312 316 309 307 307 310 312 314 321 321 319 318 316 310 305 300 298 298 297 286 284 273 278 262 247 244 248 251 262 246 236 244 222 198 205 200 188 180
Wind_Speed_850mb
27 26 21 21 29 28 30 30 30 31 35 35 36 31 28 28 32 34 36 39 38 36 36 33 33 35 34 37 50 54 53 47 42 43 45 49 49 53 54 55 54 51 51
26 29 28 26 26 29 32 34 33 32 27 23 25 30 34 38 41 41 42 45 43 43 37 39 33 31 31 36 42 40 46 50 48 44 43 48 52 51 52 55 58 56 53
34 32 35 33 32 32 32 35 33 31 29 29 24 39 47 46 49 49 41 35 38 39 34 34 36 41 42 48 51 51 52 53 56 50 49 49 53 53 55 52 56 57 58
39 39 42 39 35 36 35 26 20 26 40 56 55 67 55 58 57 26 31 44 38 41 45 50 56 56 50 44 43 42 46 53 54 57 60 58 55 54 50 54 54 55 57
37 41 46 46 42 38 44 47 42 54 47 48 61 68 63 65 23 37 46 50 49 48 53 56 52 51 50 52 52 52 49 46 51 51 56 55 55 58 59 51 51 54 55
39 45 45 47 42 65 60 38 41 55 38 45 49 55 46 44 51 42 50 49 42 42 42 43 46 51 56 60 61 57 51 50 53 58 52 51 55 59 49 46 35 40 50
19 30 48 48 43 41 39 26 36 38 47 39 34 39 41 42 51 47 41 46 45 45 48 53 57 58 58 53 52 51 51 45 47 52 48 48 51 48 43 44 46 49 50
36 32 42 35 36 28 24 24 23 27 37 37 39 29 29 35 39 40 39 56 54 60 58 60 66 67 62 62 64 66 63 51 41 37 36 47 50 48 54 56 59 57 49
27 25 24 21 21 27 29 30 31 30 25 24 33 31 15 21 40 54 57 63 61 63 69 73 67 70 68 64 59 59 58 52 46 48 42 43 40 47 46 48 48 49 57
21 20 22 19 25 28 30 33 28 27 31 27 34 37 41 47 46 58 65 61 74 70 70 75 79 72 74 70 59 61 60 52 50 47 43 44 42 42 45 49 52 52 50
22 24 27 21 32 26 21 26 27 28 32 35 37 43 49 52 54 59 78 78 74 81 84 80 77 74 69 67 59 56 60 51 47 49 47 51 51 44 44 48 47 37 38
34 34 36 30 28 26 26 29 32 34 37 43 49 53 54 54 58 57 66 79 95 92 80 72 66 53 47 46 43 46 56 54 49 35 31 31 35 48 49 46 45 41 40
44 42 34 27 27 28 30 35 39 45 52 57 58 61 61 60 58 61 63 72 72 78 81 72 58 50 59 56 53 58 60 58 50 44 40 39 31 31 40 46 45 44 42
33 31 29 30 32 34 39 44 50 53 57 60 63 64 66 65 61 59 58 61 73 60 51 51 59 68 59 57 55 56 69 71 62 53 46 47 42 34 34 39 41 42 44
36 36 37 38 39 43 47 51 53 56 58 60 60 60 61 58 55 52 52 53 59 66 65 55 57 54 70 73 73 71 71 66 66 62 51 46 41 34 35 39 39 40 41
29 32 36 40 43 45 49 52 54 54 56 58 58 57 55 53 51 51 53 55 56 66 82 68 74 77 84 88 88 85 83 75 66 65 61 50 36 37 31 33 37 39 38
29 33 37 40 43 46 48 52 55 59 61 61 58 54 54 52 53 54 55 59 65 71 90 99 87 85 87 92 80 69 71 73 70 62 61 65 52 42 38 33 35 38 36
32 37 40 44 47 51 54 57 58 56 56 55 52 51 51 52 59 64 68 72 78 83 89 101 89 86 82 70 67 66 65 62 70 66 61 60 63 52 42 40 40 40 41
36 40 45 50 53 56 58 57 57 56 53 52 52 55 61 65 71 72 75 76 76 74 73 78 84 80 73 63 64 65 64 61 70 65 60 59 57 58 49 43 44 41 45
41 45 50 55 59 62 62 59 51 47 49 55 61 67 73 72 67 71 69 67 62 65 68 75 81 81 79 75 66 69 68 63 66 60 57 54 47 52 58 50 43 44 46
50 54 59 60 62 61 58 47 41 42 57 64 69 62 64 65 68 63 57 60 64 69 74 77 82 79 70 67 60 61 64 69 64 57 50 34 40 39 49 52 46 46 43
52 54 56 57 57 51 45 41 44 51 57 62 65 67 69 60 58 55 61 61 65 69 73 73 76 72 76 71 65 62 65 65 68 49 28 29 14 30 29 36 44 45 41
49 53 53 49 44 39 35 37 43 50 59 60 63 64 60 60 61 65 64 60 59 59 65 75 82 84 79 75 71 63 57 63 61 55 52 48 15 11 32 36 40 41 43
49 51 41 34 36 35 33 30 37 46 53 56 53 53 58 61 52 48 50 56 61 67 72 74 80 81 72 66 64 62 58 57 54 53 48 51 19 20 27 31 30 34 36
41 38 34 29 30 31 31 34 40 46 50 50 50 58 53 52 53 54 61 70 76 76 68 72 64 58 56 54 53 49 53 51 55 53 38 44 37 17 26 21 22 26 32
37 34 33 29 30 31 28 30 30 40 47 54 56 46 51 54 57 62 70 76 83 84 74 70 56 55 51 48 53 58 61 61 48 28 29 31 33 23 15 20 23 30 37
Wind_Direction_850mb
248 248 241 226 223 227 238 249 259 269 274 275 274 272 277 275 281 288 292 284 281 280 279 279 285 288 287 289 296 290 290 288 285 288 290 288 290 288 280 278 275 274 274
241 237 219 221 228 239 253 264 273 276 278 290 285 277 282 274 274 271 277 288 284 278 286 291 289 289 292 293 296 292 279 274 282 281 292 290 286 283 284 279 274 272 270
228 231 220 225 236 244 256 266 273 274 275 279 291 284 280 270 283 284 291 289 274 278 291 291 294 298 299 291 291 286 279 276 277 273 276 282 282 282 277 277 277 272 269
220 229 225 230 234 234 237 243 267 292 286 266 262 271 285 252 257 253 292 284 285 283 288 296 301 303 300 295 296 296 290 287 280 276 273 278 279 278 273 271 270 272 269
225 232 232 235 235 245 258 269 267 279 274 253 279 274 262 259 203 243 277 281 284 289 292 292 293 292 290 291 296 295 297 294 292 289 281 278 278 276 279 277 276 273 268
245 244 243 250 248 272 271 268 275 267 264 263 277 261 271 241 262 256 273 278 283 291 296 295 292 289 287 287 288 290 292 292 289 283 287 288 284 277 264 268 280 283 274
242 251 262 267 258 276 250 252 262 262 262 248 268 257 254 257 263 265 268 269 282 289 295 299 297 297 295 289 286 290 291 291 290 278 274 276 277 278 273 264 270 280 275
223 214 246 254 257 256 243 243 233 232 245 251 252 251 268 273 270 274 267 285 291 294 296 297 298 297 295 291 290 289 287 286 286 292 294 283 271 267 272 273 276 278 275
227 229 239 243 241 253 254 241 234 240 243 235 244 248 276 274 287 285 287 291 295 295 297 296 294 295 294 294 290 285 285 291 289 281 291 282 274 271 271 273 276 276 272
228 238 238 221 231 240 238 233 220 234 240 242 246 253 258 269 286 297 296 290 292 289 289 290 294 295 293 294 283 285 289 292 285 278 274 289 275 276 279 281 280 284 270
241 249 239 241 237 231 220 226 237 237 240 248 255 265 269 269 272 279 285 291 284 287 294 296 297 297 295 288 284 284 289 283 286 282 277 278 278 276 282 276 275 281 272
237 233 233 226 222 228 235 241 244 250 257 267 275 278 279 282 284 281 282 287 291 297 300 301 304 305 304 300 287 291 288 288 281 280 269 272 278 280 280 268 267 272 273
231 223 221 229 237 240 243 247 254 262 268 273 278 281 281 281 282 282 283 285 292 297 299 301 303 297 296 293 286 287 286 289 278 266 267 266 279 284 272 262 263 265 266
205 211 219 228 236 240 248 258 267 273 278 280 278 278 279 281 284 286 287 292 294 294 300 295 298 303 303 301 298 293 286 284 280 272 269 267 269 272 282 268 267 268 266
213 218 227 236 248 258 266 271 273 274 274 277 280 282 283 284 285 286 285 286 289 296 295 297 299 301 300 301 300 300 297 295 286 273 264 266 263 263 275 273 268 263 269
228 240 252 259 266 271 273 276 279 282 284 285 286 286 285 287 288 288 289 288 288 291 292 293 297 300 301 300 299 300 297 294 287 277 263 260 245 237 248 263 272 266 279
256 264 270 275 279 283 288 290 292 292 289 288 287 285 286 290 289 289 289 288 288 286 287 292 294 298 299 301 300 295 293 292 289 279 263 254 247 249 243 247 260 264 269
267 274 278 281 284 285 288 293 296 294 290 289 289 288 286 284 285 287 287 288 288 288 289 292 296 297 299 301 297 296 296 292 288 279 270 257 246 244 239 241 251 259 260
285 285 286 287 289 291 292 293 296 293 288 285 287 288 288 288 287 289 291 293 293 292 290 291 292 297 301 301 298 298 295 291 294 289 278 258 246 242 236 233 244 263 258
288 287 286 285 287 288 290 293 291 285 284 284 288 288 287 285 290 298 298 297 297 297 298 295 295 298 299 298 296 296 292 291 295 294 277 258 249 242 239 241 246 261 262
290 289 289 289 290 291 291 288 281 276 286 289 290 291 291 291 298 296 296 298 299 297 296 294 293 293 289 289 286 290 283 295 297 296 286 261 254 240 234 237 247 258 253
295 294 295 296 296 294 291 282 275 279 286 290 293 293 298 300 299 296 294 294 291 290 287 286 285 280 284 284 278 282 282 287 295 298 277 253 270 227 226 226 239 245 233
300 298 296 295 292 293 291 282 282 283 286 294 296 302 306 305 305 303 301 297 291 285 279 281 279 278 282 281 276 277 273 277 285 287 295 274 251 231 238 236 236 231 223
310 307 302 295 293 294 297 296 297 295 295 300 303 304 304 305 309 311 307 300 293 292 289 287 284 280 280 280 274 271 274 279 280 278 283 276 241 244 231 229 235 223 214
319 321 320 313 304 307 311 307 305 304 304 303 306 306 306 310 317 312 310 302 299 297 299 296 289 291 280 271 270 262 260 262 268 274 273 259 248 251 220 221 211 207 187
315 317 317 317 316 312 316 309 307 307 310 312 314 321 321 319 318 316 310 305 300 298 298 297 286 284 273 278 262 247 244 248 251 262 246 236 244 222 198 205 200 188 180